This is the latest recevied weather packets stored in our database for station/object KC8JWT. If no packets are shown the sender has not sent any weather packets the latest 10 day(s).
| Time | Temp. | Humidity | Pressure | Rain* | Wind** | Luminosity | Snow |
|---|---|---|---|---|---|---|---|
| 1777897943 | 15.56° C | 63% | 1012.4 hPa | 0 mm | - | 213 W/m² | - |
| 1777897638 | 16.11° C | 61% | 1012.2 hPa | 0 mm | - | 226 W/m² | - |
| 1777897335 | 15.56° C | 63% | 1012.4 hPa | 0 mm | - | 239 W/m² | - |
| 1777897030 | 15° C | 63% | 1012.3 hPa | 0 mm | - | 210 W/m² | - |
| 1777896728 | 15° C | 65% | 1012.3 hPa | 0 mm | - | 185 W/m² | - |
| 1777896424 | 14.44° C | 64% | 1012.2 hPa | 0 mm | - | 146 W/m² | - |
| 1777896122 | 13.89° C | 68% | 1012.3 hPa | 0 mm | - | 131 W/m² | - |
| 1777895820 | 13.33° C | 73% | 1012.3 hPa | 0 mm | - | 123 W/m² | - |
| 1777895517 | 12.78° C | 73% | 1012.1 hPa | 0 mm | - | 111 W/m² | - |
| 1777895215 | 12.78° C | 76% | 1012 hPa | 0 mm | - | 88 W/m² | - |
| 1777894912 | 11.67° C | 76% | 1012 hPa | 0 mm | - | 83 W/m² | - |
| 1777894609 | 11.67° C | 76% | 1012 hPa | 0 mm | - | 74 W/m² | - |
| 1777894306 | 10.56° C | 80% | 1011.9 hPa | 0 mm | - | 62 W/m² | - |
| 1777894003 | 10° C | 81% | 1012.3 hPa | 0 mm | - | 52 W/m² | - |
| 1777893700 | 9.44° C | 83% | 1012.1 hPa | 0 mm | - | 47 W/m² | - |
| 1777893396 | 8.89° C | 86% | 1012 hPa | 0 mm | - | 41 W/m² | - |
| 1777893092 | 7.78° C | 87% | 1012 hPa | 0 mm | - | 36 W/m² | - |
| 1777892789 | 7.78° C | 87% | 1012.1 hPa | 0 mm | - | 29 W/m² | - |
| 1777892485 | 7.78° C | 88% | 1012.3 hPa | 0 mm | - | 24 W/m² | - |
| 1777892181 | 7.22° C | 89% | 1012.3 hPa | 0 mm | - | 21 W/m² | - |
| 1777891878 | 7.22° C | 89% | 1012.2 hPa | 0 mm | - | 17 W/m² | - |
| 1777891575 | 7.22° C | 88% | 1012.2 hPa | 0 mm | - | 13 W/m² | - |
| 1777891272 | 7.78° C | 88% | 1012.4 hPa | 0 mm | - | 11 W/m² | - |
| 1777890971 | 7.78° C | 87% | 1012.4 hPa | 0 mm | - | 8 W/m² | - |
| 1777890666 | 7.78° C | 87% | 1012.2 hPa | 0 mm | - | 4 W/m² | - |
* Rain latest hour (hover to see other rain measurements)
** Current wind speed in m/s (hover to see current wind gust speed)